User: anonymous   Login
Location: Newark
(48.1500°N, 80.0333°W)
Time: 18:54:18
(UTC+00:00)
Language:

Hubble Space Telescope - Orbit

View from above orbital plane
View from above orbital plane
View from above satellite
View from above satellite

Ground track
Ground track

The orbit data is extracted from the following two-line orbital elements,

1 20580U 90037B   20101.16504973  .00000466  00000-0  17391-4 0  9994
2 20580  28.4702  51.3219 0002919  78.6512 238.4081 15.09366757445728
Epoch (UTC): 10 April 2020 03:57:40
Eccentricity: 0.0002919
inclination: 28.4702°
perigee height: 536 km
apogee height: 540 km
right ascension of ascending node: 51.3219°
argument of perigee: 78.6512°
revolutions per day: 15.09366757
mean anomaly at epoch: 238.4081°
orbit number at epoch: 44572

The dashed part of the orbit path shows where the satellite is in the earth's shadow,  

DLR